This is the latest recevied weather packets stored in our database for station/object WE0DX-1. If no packets are shown the sender has not sent any weather packets the latest 10 day(s).
| Time | Temp. | Humidity | Pressure | Rain* | Wind** | Luminosity | Snow |
|---|---|---|---|---|---|---|---|
| 1778101807 | 15° C | 34% | 1017.2 hPa | 0 mm | - | 266 W/m² | - |
| 1778101502 | 15° C | 33% | 1017.3 hPa | 0 mm | - | 347 W/m² | - |
| 1778101200 | 15° C | 33% | 1017.2 hPa | 0 mm | - | 305 W/m² | - |
| 1778100896 | 15° C | 33% | 1017.4 hPa | 0 mm | - | 168 W/m² | - |
| 1778100592 | 15.56° C | 31% | 1017.3 hPa | 0 mm | - | 383 W/m² | - |
| 1778100290 | 15.56° C | 33% | 1017.4 hPa | 0 mm | - | 638 W/m² | - |
| 1778099987 | 15.56° C | 34% | 1017.7 hPa | 0 mm | - | 546 W/m² | - |
| 1778099684 | 15.56° C | 36% | 1017.6 hPa | 0 mm | - | 582 W/m² | - |
| 1778099381 | 15.56° C | 32% | 1017.4 hPa | 0 mm | - | 608 W/m² | - |
| 1778099078 | 15° C | 33% | 1017.7 hPa | 0 mm | - | 586 W/m² | - |
| 1778098774 | 15° C | 33% | 1017.7 hPa | 0 mm | - | 634 W/m² | - |
| 1778098472 | 15° C | 36% | 1017.8 hPa | 0 mm | - | 640 W/m² | - |
| 1778098169 | 15° C | 34% | 1017.6 hPa | 0 mm | - | 616 W/m² | - |
| 1778097865 | 15° C | 33% | 1017.9 hPa | 0 mm | - | 653 W/m² | - |
| 1778097557 | 14.44° C | 33% | 1017.6 hPa | 0 mm | - | 629 W/m² | - |
| 1778097253 | 15° C | 35% | 1017.8 hPa | 0 mm | - | 647 W/m² | - |
| 1778096950 | 14.44° C | 33% | 1017.9 hPa | 0 mm | - | 628 W/m² | - |
| 1778096647 | 14.44° C | 34% | 1017.9 hPa | 0 mm | - | 597 W/m² | - |
| 1778096343 | 14.44° C | 34% | 1018 hPa | 0 mm | - | 616 W/m² | - |
| 1778096041 | 14.44° C | 34% | 1017.8 hPa | 0 mm | - | 602 W/m² | - |
| 1778095737 | 13.89° C | 35% | 1018.1 hPa | 0 mm | - | 611 W/m² | - |
| 1778095434 | 13.89° C | 36% | 1018.2 hPa | 0 mm | - | 592 W/m² | - |
| 1778095131 | 13.89° C | 34% | 1018 hPa | 0 mm | - | 271 W/m² | - |
| 1778094827 | 14.44° C | 34% | 1018.1 hPa | 0 mm | - | 663 W/m² | - |
| 1778094524 | 14.44° C | 33% | 1018 hPa | 0 mm | - | 670 W/m² | - |
* Rain latest hour (hover to see other rain measurements)
** Current wind speed in m/s (hover to see current wind gust speed)